[[{"header":{"parameterUnit":"m.s-1","parameterCategory":1,"la1":30.2991,"la2":30.254,"lo1":-89.0895,"lo2":-89.0444,"dy":0.0017,"dx":0.0017,"nx":28,"ny":28,"refTime":"2023-09-24T21:00:00:Z","depth":0,"parameterNumber":2,"parameterNumberName":"U-component_of_WINDS"},"data":[0,0,0,0,0,0,0,0,0,0,0,0,0,0,0,0,0,0,0,0,0,0,0,0,0,0,0,0,0,0,0,0,0,0,0,0,0,0,0,0,0,0,0,0,0,0,0,0,0,0,0,0,0,0,0,0,0,0,-0.1673,-0.1672,0,-0.1642,-0.1642,-0.1642,-0.1588,-0.1587,-0.1586,-0.1585,-0.1556,-0.1556,-0.1556,0,0,0,0,0,0,0,0,0,0,0,0,0,-0.1687,-0.1687,-0.1673,-0.1672,-0.1672,-0.1642,-0.1642,-0.1642,-0.1588,-0.1587,-0.1586,-0.1585,-0.1556,-0.1556,-0.1556,0,0,0,0,0,0,0,0,0,0,0,0,0,-0.1671,-0.1687,-0.1673,-0.1642,-0.1639,-0.1642,-0.1642,-0.1641,-0.1589,-0.1587,-0.1586,-0.1584,-0.1556,-0.1556,-0.1556,-0.1588,0,0,-0.1557,-0.1557,0,0,0,0,0,0,0,0,-0.1672,-0.1671,-0.1647,-0.1644,-0.1641,-0.1617,-0.1636,-0.1624,-0.1589,-0.1608,-0.1585,-0.1584,-0.1578,-0.1576,-0.1574,-0.1587,-0.1586,-0.1557,-0.1557,-0.1558,-0.1558,0,0,0,0,0,0,0,-0.1674,-0.1672,-0.1661,-0.1647,-0.1643,-0.163,-0.1626,-0.1634,-0.1602,-0.1606,-0.1602,-0.1599,-0.1576,-0.1574,-0.1573,-0.1585,-0.1557,-0.1557,-0.1558,-0.1558,-0.1623,-0.1625,0,0,0,0,0,0,-0.1679,-0.1673,-0.1662,-0.166,-0.1653,-0.1631,-0.1627,-0.1626,-0.1602,-0.1596,-0.16,-0.1597,-0.1574,-0.1573,-0.1572,-0.1607,-0.1558,-0.1558,-0.1558,-0.1622,-0.1624,-0.1626,0,0,0,0,0,0,-0.1679,-0.1678,-0.1663,-0.1665,-0.1662,-0.1633,-0.1633,-0.1627,-0.1624,-0.1597,-0.1592,-0.1604,-0.1573,-0.1571,-0.1585,-0.1606,-0.1558,-0.1558,-0.162,-0.1623,-0.1625,-0.1679,0,0,0,0,0,0,-0.168,-0.1679,-0.169,-0.1666,-0.1663,-0.1676,-0.1634,-0.1627,-0.1625,-0.162,-0.1599,-0.1594,-0.1572,-0.1584,-0.1585,-0.1605,-0.1558,-0.1618,-0.1621,-0.1624,-0.1676,-0.1683,-0.169,0,0,0,0,0,-0.1681,-0.1707,-0.1691,-0.169,-0.1676,-0.1677,-0.1675,-0.1648,-0.1627,-0.1638,-0.1621,-0.1595,-0.1603,-0.1586,-0.1586,-0.1607,-0.1617,-0.162,-0.1624,-0.1672,-0.1682,-0.169,0,0,0,0,0,0,-0.1735,-0.1703,-0.1685,-0.1704,-0.1694,-0.1668,-0.1682,-0.1659,-0.1655,-0.165,-0.1617,-0.1613,-0.1631,-0.162,-0.1602,-0.1637,-0.1606,-0.161,-0.1643,-0.1652,-0.1659,-0.1661,-0.1559,0,0,0,0,0,-0.1749,-0.1752,-0.1725,-0.1744,-0.174,-0.1712,-0.1712,-0.1691,-0.1679,-0.1675,-0.1658,-0.1648,-0.1649,-0.165,-0.1648,-0.1674,-0.1669,-0.1688,-0.1695,-0.1701,-0.1705,-0.1718,-0.1727,-0.1637,-0.1637,-0.1637,0,0,-0.1779,-0.1762,-0.1766,-0.1755,-0.1744,-0.1749,-0.1709,-0.1715,-0.1718,-0.1676,-0.1687,-0.1675,-0.1662,-0.1681,-0.1689,-0.1673,-0.1729,-0.1706,-0.1711,-0.1711,-0.1723,-0.1731,-0.1739,-0.164,-0.1639,-0.1639,0,0,-0.1835,-0.1822,-0.1837,-0.1827,-0.1812,-0.1793,-0.1797,-0.1774,-0.1764,-0.1775,-0.1744,-0.1747,-0.1749,-0.174,-0.1736,-0.179,-0.1766,-0.179,-0.1828,-0.1841,-0.1848,-0.1854,-0.1874,-0.1881,-0.1794,-0.1794,-0.1794,0,-0.1874,-0.1878,-0.1848,-0.1856,-0.1853,-0.1814,-0.183,-0.1822,-0.1807,-0.1806,-0.1788,-0.1788,-0.1777,-0.1794,-0.1807,-0.1805,-0.1809,-0.1793,-0.185,-0.1856,-0.1861,-0.1879,-0.1886,-0.1797,-0.1797,-0.1797,-0.1796,0,-0.1927,-0.1931,-0.1945,-0.1931,-0.1929,-0.1941,-0.1913,-0.1915,-0.1895,-0.1879,-0.189,-0.1875,-0.187,-0.1873,-0.1854,-0.1888,-0.1878,-0.1856,-0.1824,-0.1873,-0.1889,-0.1896,-0.1802,-0.1801,-0.18,-0.1799,0,0,-0.2016,-0.1985,-0.1991,-0.1984,-0.1964,-0.1967,-0.1977,-0.1972,-0.1974,-0.1966,-0.1974,-0.1976,-0.1955,-0.1951,-0.193,-0.1942,-0.1986,-0.1918,-0.1917,-0.1931,-0.2023,-0.204,-0.2048,-0.197,-0.1971,-0.1972,-0.2024,0,-0.2068,-0.2083,-0.2057,-0.2079,-0.2082,-0.2046,-0.2055,-0.2044,-0.2029,-0.2031,-0.2014,-0.2016,-0.1988,-0.1985,-0.1995,-0.1978,-0.2004,-0.1974,-0.1978,-0.1978,-0.1983,-0.2057,-0.2075,-0.2125,-0.203,-0.2031,-0.2032,0,-0.213,-0.2124,-0.2146,-0.2125,-0.2125,-0.2134,-0.2127,-0.2129,-0.2116,-0.2104,-0.21,-0.2076,-0.2085,-0.2055,-0.2068,-0.2049,-0.2049,-0.2041,-0.2042,-0.2042,-0.2008,-0.2059,-0.214,-0.2148,-0.2042,-0.2041,-0.204,0,-0.2194,-0.2191,-0.2203,-0.2199,-0.2174,-0.2181,-0.2172,-0.2157,-0.2156,-0.215,-0.2149,-0.2145,-0.2143,-0.2141,-0.2117,-0.2096,-0.2133,-0.21,-0.2124,-0.2125,-0.2134,-0.2133,-0.2216,-0.2133,-0.2133,-0.2133,-0.2133,0,-0.2254,-0.2269,-0.2231,-0.224,-0.2256,-0.2225,-0.2242,-0.2229,-0.2217,-0.2222,-0.2191,-0.2197,-0.2164,-0.2167,-0.2148,-0.2162,-0.2162,-0.2153,-0.2148,-0.2156,-0.2157,-0.2156,-0.2152,-0.2135,-0.2135,-0.2134,-0.2134,0,-0.2327,-0.2303,-0.2314,-0.229,-0.2284,-0.2297,-0.2277,-0.2284,-0.2267,-0.2274,-0.2274,-0.2248,-0.2249,-0.2225,-0.2222,-0.2209,-0.2232,-0.2221,-0.2236,-0.2233,-0.2258,-0.2256,-0.2343,-0.2354,-0.2264,-0.2265,-0.2266,0,-0.2368,-0.2378,-0.2355,-0.2356,-0.2348,-0.235,-0.2348,-0.2319,-0.2319,-0.2305,-0.2314,-0.2313,-0.231,-0.2315,-0.2296,-0.2294,-0.2282,-0.2313,-0.2282,-0.229,-0.2283,-0.2283,-0.2284,-0.2319,-0.2321,-0.2321,-0.2322,0,-0.2442,-0.2429,-0.2428,-0.2422,-0.2421,-0.2415,-0.2407,-0.241,-0.2378,-0.238,-0.238,-0.2378,-0.2375,-0.2375,-0.2369,-0.236,-0.2336,-0.2332,-0.2338,-0.2346,-0.2355,-0.2351,-0.2255,-0.233,-0.233,-0.2329,-0.2328,-0.2328,-0.25,-0.2508,-0.2493,-0.2493,-0.2484,-0.2477,-0.2482,-0.2466,-0.2466,-0.246,-0.2443,-0.2447,-0.2435,-0.2425,-0.2418,-0.2421,-0.2406,-0.2414,-0.2416,-0.2418,-0.2423,-0.2354,-0.242,-0.242,-0.2419,-0.2419,-0.2419,0,-0.2573,-0.2562,-0.2562,-0.2551,-0.2551,-0.2528,-0.2519,-0.252,-0.2524,-0.2514,-0.2512,-0.2514,-0.2513,-0.2494,-0.2492,-0.2498,-0.2487,-0.2498,-0.2498,-0.2496,-0.2437,-0.2432,-0.2507,-0.2507,-0.2507,-0.2507,-0.2507,-0.2507,-0.2611,-0.2624,-0.2609,-0.2617,-0.2606,-0.2609,-0.2605,-0.26,-0.2592,-0.2594,-0.2594,-0.2581,-0.2568,-0.2564,-0.2563,-0.2557,-0.2558,-0.2573,-0.2564,-0.2509,-0.25,-0.2492,-0.2488,-0.2574,-0.2574,-0.2624,-0.2624,-0.2625]},{"header":{"parameterUnit":"m.s-1","parameterCategory":1,"la1":30.2991,"la2":30.254,"lo1":-89.0895,"lo2":-89.0444,"dy":0.0017,"dx":0.0017,"nx":28,"ny":28,"refTime":"2023-09-24T21:00:00:Z","depth":0,"parameterNumber":3,"parameterNumberName":"V-component_of_WINDS"},"data":[0,0,0,0,0,0,0,0,0,0,0,0,0,0,0,0,0,0,0,0,0,0,0,0,0,0,0,0,0,0,0,0,0,0,0,0,0,0,0,0,0,0,0,0,0,0,0,0,0,0,0,0,0,0,0,0,0,0,1.3584,1.3585,0,1.3705,1.3706,1.3707,1.3764,1.3764,1.3764,1.3764,1.3887,1.389,1.3893,0,0,0,0,0,0,0,0,0,0,0,0,0,1.3397,1.34,1.3584,1.3585,1.3587,1.3704,1.3706,1.3708,1.3764,1.3764,1.3764,1.3764,1.3886,1.389,1.3894,0,0,0,0,0,0,0,0,0,0,0,0,0,1.3494,1.3401,1.3583,1.3629,1.3634,1.3704,1.3706,1.3708,1.3764,1.3764,1.3764,1.3764,1.3884,1.3889,1.3894,1.3927,0,0,1.3909,1.3911,0,0,0,0,0,0,0,0,1.3489,1.3501,1.3621,1.3626,1.3632,1.3719,1.3685,1.3781,1.3764,1.3715,1.3764,1.3764,1.3831,1.384,1.3863,1.3933,1.3938,1.391,1.3913,1.3915,1.3916,0,0,0,0,0,0,0,1.3482,1.3496,1.3631,1.3622,1.3629,1.3642,1.3656,1.3704,1.3772,1.3719,1.3724,1.3737,1.3834,1.3858,1.3867,1.394,1.391,1.3914,1.3917,1.3919,1.4038,1.4038,0,0,0,0,0,0,1.3468,1.349,1.3628,1.3635,1.3559,1.3646,1.3661,1.3691,1.3772,1.3784,1.3737,1.374,1.385,1.3861,1.3871,1.3913,1.3915,1.392,1.3922,1.4038,1.4038,1.4038,0,0,0,0,0,0,1.3464,1.348,1.3623,1.3564,1.3583,1.3649,1.3683,1.3694,1.3718,1.3785,1.3797,1.375,1.385,1.3864,1.3912,1.3918,1.3922,1.3926,1.4038,1.4038,1.4038,1.3997,0,0,0,0,0,0,1.3458,1.3478,1.3493,1.3564,1.3586,1.3663,1.3683,1.3696,1.3727,1.3731,1.38,1.3812,1.3851,1.3904,1.3917,1.3925,1.393,1.4037,1.4038,1.4038,1.3998,1.3996,1.3994,0,0,0,0,0,1.3451,1.3477,1.3493,1.3509,1.3606,1.3663,1.3676,1.3721,1.3727,1.3741,1.3784,1.381,1.3915,1.3908,1.3923,1.3933,1.4037,1.4038,1.4038,1.3999,1.3996,1.3994,0,0,0,0,0,0,1.3405,1.3487,1.3506,1.3555,1.3602,1.3673,1.3692,1.3717,1.3763,1.3764,1.3818,1.3833,1.3875,1.3909,1.39,1.3967,1.3978,1.3981,1.3944,1.3941,1.3939,1.393,1.3934,0,0,0,0,0,1.34,1.3441,1.351,1.3547,1.3569,1.3626,1.3653,1.3683,1.3734,1.3754,1.38,1.3846,1.389,1.3918,1.3961,1.4003,1.4017,1.4016,1.4014,1.4012,1.4014,1.4035,1.4035,1.4039,1.4039,1.4039,0,0,1.3392,1.3441,1.3464,1.3539,1.3578,1.3617,1.3643,1.3684,1.3713,1.376,1.3807,1.3842,1.3898,1.3941,1.3963,1.3971,1.4016,1.4012,1.401,1.4014,1.4036,1.4035,1.4035,1.404,1.404,1.404,0,0,1.3396,1.3438,1.3472,1.351,1.3569,1.3607,1.3614,1.3681,1.3705,1.3754,1.3789,1.3823,1.3898,1.3935,1.3963,1.3976,1.4001,1.3989,1.3978,1.3998,1.3997,1.3997,1.4,1.4,1.3991,1.3991,1.3991,0,1.3377,1.3439,1.3486,1.3525,1.3555,1.3598,1.3631,1.3666,1.3736,1.3755,1.3763,1.3854,1.3895,1.3947,1.3949,1.3972,1.398,1.3982,1.3994,1.3994,1.3995,1.3998,1.3999,1.3989,1.3989,1.3989,1.3989,0,1.3412,1.3454,1.3474,1.3539,1.3572,1.3608,1.3658,1.3686,1.3712,1.3747,1.3794,1.3844,1.3897,1.3911,1.3938,1.3965,1.3968,1.3984,1.3996,1.3992,1.3995,1.3997,1.3986,1.3987,1.3987,1.3988,0,0,1.3393,1.3482,1.3488,1.3517,1.3583,1.3616,1.3651,1.3703,1.3724,1.377,1.38,1.386,1.3874,1.3906,1.3937,1.3954,1.3958,1.3968,1.397,1.3963,1.3988,1.3975,1.3976,1.3974,1.3975,1.3975,1.3983,0,1.3405,1.3473,1.3514,1.3564,1.3602,1.3641,1.3671,1.3714,1.3747,1.3783,1.3819,1.386,1.3876,1.3895,1.3914,1.3953,1.3964,1.3953,1.4001,1.4002,1.3986,1.3978,1.3966,1.3971,1.3985,1.3985,1.3985,0,1.343,1.3473,1.3526,1.3585,1.3602,1.363,1.3678,1.3712,1.376,1.3782,1.3816,1.3847,1.3884,1.3892,1.3942,1.3934,1.3956,1.3977,1.3979,1.3985,1.3993,1.3983,1.3975,1.3975,1.3988,1.3988,1.3988,0,1.3408,1.348,1.3521,1.3544,1.3614,1.3632,1.3661,1.3709,1.3736,1.3778,1.3796,1.3841,1.3866,1.3899,1.394,1.3943,1.3985,1.3998,1.4003,1.4002,1.4011,1.401,1.4005,1.4026,1.4026,1.4026,1.4026,0,1.3417,1.3448,1.3511,1.3536,1.357,1.3616,1.3649,1.3681,1.3723,1.3753,1.3789,1.3817,1.3869,1.3902,1.3934,1.3969,1.398,1.3998,1.4006,1.3995,1.3992,1.401,1.401,1.4026,1.4026,1.4026,1.4026,0,1.34,1.3444,1.349,1.3551,1.3567,1.3589,1.3641,1.3665,1.3699,1.3737,1.3748,1.38,1.3841,1.3884,1.394,1.3961,1.3994,1.4006,1.3978,1.3982,1.3985,1.3983,1.399,1.3992,1.4012,1.4012,1.4012,0,1.3403,1.3427,1.349,1.3513,1.3541,1.3578,1.3605,1.3649,1.3676,1.373,1.3747,1.379,1.3827,1.3889,1.3931,1.3972,1.3985,1.3984,1.3992,1.3978,1.3983,1.3981,1.3983,1.3982,1.3982,1.3981,1.3981,0,1.3403,1.3422,1.346,1.3504,1.3535,1.3573,1.3611,1.3627,1.3679,1.3706,1.3748,1.3776,1.3831,1.3872,1.3918,1.3947,1.3972,1.3978,1.3981,1.397,1.3952,1.396,1.3971,1.3978,1.3978,1.3979,1.3979,1.3979,1.3395,1.3417,1.3464,1.3504,1.3537,1.3571,1.3596,1.3631,1.3667,1.3715,1.3739,1.3779,1.3822,1.3887,1.3914,1.3945,1.3953,1.3958,1.396,1.396,1.3956,1.3947,1.3954,1.3954,1.3954,1.3954,1.3955,0,1.3395,1.3426,1.3463,1.3514,1.3545,1.3565,1.3607,1.3631,1.3666,1.3705,1.3739,1.3785,1.3824,1.3868,1.3909,1.3925,1.3937,1.3934,1.3934,1.3939,1.3948,1.394,1.3924,1.3924,1.3924,1.3924,1.3924,1.3924,1.3399,1.3437,1.3461,1.3514,1.3544,1.3584,1.3606,1.3637,1.3668,1.3717,1.3749,1.3777,1.3817,1.3861,1.3897,1.3908,1.3921,1.3915,1.3929,1.3936,1.3939,1.3941,1.3935,1.3917,1.3917,1.3918,1.3918,1.3918]}]]